Regional Weather Roundup
Issued by NWS Little Rock, AR

Home | Current Version | Previous Version | Graphics & Text | Print | Product List | Glossary On
Versions: 1 2 3 4 5 6 7 8 9 10 11 12 13 14 15 16 17 18 19 20 21 22 23 24 25 26 27 28 29 30 31 32 33 34 35 36 37 38 39 40 41 42 43 44 45 46 47 48 49 50
000
ASUS44 KLZK 271105
RWRLZK

WEATHER ROUNDUP FOR ARKANSAS
NATIONAL WEATHER SERVICE LITTLE ROCK AR
600 AM CDT MON APR 27 2015

NOTE: "FAIR" INDICATES FEW OR NO CLOUDS BELOW 12,000 FEET WITH NO
SIGNIFICANT WEATHER AND/OR OBSTRUCTIONS TO VISIBILITY.

ARZ001-003-010-029-271200-
NORTHWEST ARKANSAS

CITY           SKY/WX    TMP DP  RH WIND       PRES   REMARKS
FAYETTEVILLE   LGT RAIN  50  47  89 E8        29.94F
FORT SMITH     CLOUDY    55  48  77 E12G21    29.91F
HARRISON       CLOUDY    48  40  73 E5        30.01R
BENTONVILLE    CLOUDY    52  39  62 E15G22    29.94F
ROGERS         CLOUDY    52  39  61 E17G24    29.94F
SILOAM SPGS    CLOUDY    50  43  76 E9        29.95R
HIGHFILL       CLOUDY    51  48  89 E7        29.94S
SPRINGDALE     MOCLDY    50  45  81 E14G21    29.95
$$

ARZ004-005-016-271200-
NORTH CENTRAL ARKANSAS

CITY           SKY/WX    TMP DP  RH WIND       PRES   REMARKS
BATESVILLE     CLOUDY    48  43  81 N5        30.01F
FLIPPIN        CLOUDY    48  43  81 CALM      30.01S
MTN HOME       CLOUDY    47  39  74 CALM      30.02R
$$

ARZ040-041-271200-
WEST CENTRAL ARKANSAS

CITY           SKY/WX    TMP DP  RH WIND       PRES   REMARKS
MENA           CLOUDY    54  52  94 E10       29.89F
MOUNT IDA      LGT RAIN  53  50  89 CALM      29.90R
$$

ARZ009-017-025-026-028-271200-
NORTHEAST ARKANSAS

CITY           SKY/WX    TMP DP  RH WIND       PRES   REMARKS
CORNING          N/A     48  39  71 NE8       30.01R
JONESBORO      CLOUDY    48  41  76 NE9       30.00R
NEWPORT        CLOUDY    48  44  86 N8        30.03S
WALNUT RIDGE   CLOUDY    48  39  71 CALM      30.02R
BLYTHEVILLE    CLOUDY    47  42  83 CALM      30.00R
$$

ARZ022-023-033-042-044-271200-
CENTRAL ARKANSAS

CITY           SKY/WX    TMP DP  RH WIND       PRES   REMARKS
LITTLE ROCK    LGT RAIN  55  49  80 NE12      29.93F
N LITTLE ROCK    N/A     52  51  95 NE10      29.93F
JACKSONVILLE   CLOUDY    54  45  71 NE10      29.94F
SEARCY         CLOUDY    52  43  71 N7        30.00S
HOT SPRINGS    LGT RAIN  54  50  86 E8G17     29.90F
RUSSELLVILLE   LGT RAIN  54  45  71 E8        29.98R
CLINTON        FAIR      50  45  81 CALM      30.02R
$$

ARZ036-271200-
EAST ARKANSAS

CITY           SKY/WX    TMP DP  RH WIND       PRES   REMARKS
WEST MEMPHIS   CLOUDY    50  44  80 N3        29.97R
$$

ARZ050-053-066-070-073-271200-
SOUTHWEST ARKANSAS

CITY           SKY/WX    TMP DP  RH WIND       PRES   REMARKS
ARKADELPHIA    RAIN      55  55 100 CALM      29.94R FOG
CAMDEN         CLOUDY    54  50  87 N7        29.89S
TEXARKANA      CLOUDY    54  52  93 NE12G17   29.83F
EL DORADO      CLOUDY    58  49  72 NE13      29.87R
$$

ARZ056-057-069-271200-
SOUTHEAST ARKANSAS

CITY           SKY/WX    TMP DP  RH WIND       PRES   REMARKS
PINE BLUFF     CLOUDY    54  51  90 NE10      29.91R
STUTTGART      CLOUDY    55  48  76 NE13      29.94F
MONTICELLO     CLOUDY    57  49  74 NE15G24   29.89R

$$





USA.gov is the U.S. government's official web portal to all federal, state and local government web resources and services.